Ellensburg, WA

7:22 AM PDT on June 28, 2017 (GMT -0700)
Bowers

Weather History for KELN - July, 2013

Change the Weather History Date:

Wednesday, July 31, 2013

  Actual Average (KYKM) Record (KYKM)
Temperature  
Mean Temperature 76 °F -  
Max Temperature 91 °F 90 °F 108 °F (1971)
Min Temperature 61 °F 55 °F 42 °F (1964)
Cooling Degree Days 11    
Growing Degree Days 26 (Base 50)    
Moisture  
Dew Point 52 °F    
Average Humidity 50    
Maximum Humidity 75    
Minimum Humidity 22    
Precipitation  
Precipitation 0.00 in - - ()
Sea Level Pressure  
Sea Level Pressure 30.01 in    
Wind  
Wind Speed 4 mph (NNW)    
Max Wind Speed 21 mph    
Max Gust Speed 29 mph    
Visibility 9 miles    
Events      
Averages and records for this station are not official NWS values.
T = Trace of Precipitation, MM = Missing Value Source: NWS Daily Summary

Daily Weather History Graph

Daily Weather History Graph

Search for Another Location

Airport or City:

Trip Planner

Search our weather history database for the weather conditions in past years. The results will help you decide how hot, cold, wet, or windy it might be!

Date:

Astronomy

Jul. 31, 2013 Rise Set
Actual Time 5:40 AM PDT 8:35 PM PDT
Civil Twilight 5:04 AM PDT 9:11 PM PDT
Nautical Twilight 4:19 AM PDT 9:56 PM PDT
Astronomical Twilight 3:24 AM PDT 10:50 PM PDT
Moon 12:39 AM PDT (7/31) 3:57 PM PDT (7/31)
Length of Visible Light 16h 06m
Length of Day
14h 54m
Waning Crescent, 31% of the Moon is Illuminated
Jul 31
Waning Crescent
Aug 6
New
Aug 14
First Quarter
Aug 20
Full
Aug 28
Last Quarter

Hourly Weather History & Observations

Time (PDT) Temp. Heat Index Dew Point Humidity Pressure Visibility Wind Dir Wind Speed Gust Speed Precip Events Conditions
12:53 AM 63.0 °F - 52.0 °F 67% 30.05 in 9.0 mi NE 6.9 mph - N/A   Overcast
1:53 AM 62.1 °F - 53.1 °F 72% 30.04 in 10.0 mi Calm Calm - N/A   Scattered Clouds
2:53 AM 62.1 °F - 51.1 °F 67% 30.05 in 8.0 mi Calm Calm - N/A   Partly Cloudy
3:53 AM 62.1 °F - 51.1 °F 67% 30.03 in 7.0 mi Calm Calm - N/A   Partly Cloudy
4:53 AM 61.0 °F - 53.1 °F 75% 30.04 in 9.0 mi ENE 6.9 mph - N/A   Clear
5:53 AM 62.1 °F - 54.0 °F 75% 30.05 in 10.0 mi Calm Calm - N/A   Clear
6:38 AM 62.6 °F - 53.6 °F 72% 30.09 in 10.0 mi NE 4.6 mph - N/A   Mostly Cloudy
6:48 AM 62.6 °F - 53.6 °F 72% 30.09 in 10.0 mi NE 6.9 mph - N/A   Mostly Cloudy
6:53 AM 63.0 °F - 53.1 °F 70% 30.05 in 10.0 mi ENE 6.9 mph - N/A   Mostly Cloudy
7:00 AM 64.4 °F - 53.6 °F 68% 30.09 in 10.0 mi NE 3.5 mph - N/A   Mostly Cloudy
7:07 AM 64.4 °F - 53.6 °F 68% 30.09 in 10.0 mi SW 4.6 mph - N/A   Mostly Cloudy
7:53 AM 64.0 °F - 54.0 °F 70% 30.06 in 10.0 mi Calm Calm - N/A   Scattered Clouds
8:53 AM 69.1 °F - 54.0 °F 58% 30.06 in 10.0 mi Calm Calm - N/A   Overcast
9:53 AM 71.1 °F - 55.0 °F 57% 30.05 in 10.0 mi Variable 3.5 mph - N/A   Overcast
10:53 AM 73.9 °F - 55.9 °F 53% 30.03 in 10.0 mi SSW 3.5 mph - N/A   Overcast
11:53 AM 75.9 °F - 57.0 °F 52% 30.02 in 10.0 mi Variable 4.6 mph - N/A   Overcast
12:13 PM 77.0 °F - 57.2 °F 50% 30.06 in 10.0 mi East 3.5 mph - N/A   Overcast
12:53 PM 80.1 °F 80.0 °F 54.0 °F 40% 30.02 in 9.0 mi Calm Calm - N/A   Overcast
1:53 PM 84.9 °F - 52.0 °F 32% 30.00 in 10.0 mi NW 4.6 mph - N/A   Mostly Cloudy
2:11 PM 86.0 °F - 48.2 °F 27% 30.03 in 9.0 mi WNW 4.6 mph - N/A   Scattered Clouds
2:23 PM 87.8 °F - 50.0 °F 27% 30.02 in 8.0 mi NW 4.6 mph - N/A   Mostly Cloudy
2:53 PM 91.0 °F - 46.9 °F 22% 29.96 in 6.0 mi NW 5.8 mph - N/A   Haze
3:53 PM 87.1 °F - 50.0 °F 28% 29.95 in 8.0 mi WSW 3.5 mph - N/A   Mostly Cloudy
4:37 PM 86.0 °F - 51.8 °F 31% 29.97 in 10.0 mi West 3.5 mph - N/A   Mostly Cloudy
4:53 PM 86.0 °F - 48.0 °F 27% 29.94 in 10.0 mi Calm Calm - N/A   Overcast
5:53 PM 86.0 °F - 48.9 °F 28% 29.93 in 10.0 mi Calm Calm - N/A   Mostly Cloudy
6:53 PM 82.9 °F - 45.0 °F 26% 29.93 in 4.0 mi NNE 10.4 mph - N/A   Haze
7:53 PM 77.0 °F - 48.0 °F 36% 29.94 in 10.0 mi NW 20.7 mph 28.8 mph N/A   Mostly Cloudy
8:53 PM 73.9 °F - 48.0 °F 40% 29.94 in 10.0 mi NW 13.8 mph - N/A   Overcast
9:53 PM 72.0 °F - 48.9 °F 44% 29.94 in 10.0 mi NW 12.7 mph - N/A   Clear
10:53 PM 72.0 °F - 48.9 °F 44% 29.94 in 10.0 mi NW 10.4 mph - N/A   Clear
11:53 PM 68.0 °F - 48.9 °F 50% 29.94 in 10.0 mi NW 8.1 mph - N/A   Mostly Cloudy